Location: Unspecified
(0.0000°N, 0.0000°E)
Time: 05:29:47
(UTC+00:00)

RS-8 - Pass Details

Date: 11 October 2022
Orbit: 1579 x 1660 km, 83.0° (Epoch: 09 December)

Event Time Altitude Azimuth Distance (km) Brightness Sun altitude
Rises 19:53:38 0° 182° (S) 4,769 10.7 -31.5°
Reaches altitude 10° 19:56:34 10° 181° (S) 3,782 10.1 -32.2°
Maximum altitude 20:05:44 87° 94° (E) 1,588 7.8 -34.4°
Enters shadow 20:08:09 56° 7° (N) 1,833 8.1 -35.0°
Exits shadow 20:17:06 - 4° (N) 4,523 10.3 -37.3°
Sets 20:17:54 0° 4° (N) 4,791 10.5 -37.5°
